COSMOS 726

导读

COSMOS 726是苏联(现归属独联体CIS)于1975年4月11日发射的卫星,属于苏联"宇宙"(COSMOS)系列卫星。冷战背景下,该系列多承担军事侦察与航天技术试验任务,COSMOS 726具体任务细节未公开,推测用于电子情报收集或空间技术验证,是苏联冷战太空部署的组成部分,现已完成使命,成为太空观测史上的早期卫星案例。

Basic Information
目录编号:
7736
目录名称:
COSMOS 726
国际标识:
1975-028A
轨道中心:
EARTH
卫星名称:
COSMOS 726
卫星全名:
--
卫星状态:
在轨 (已飞行18736 天)
发射日期:
1975-04-11 UTC
国别 :
俄罗斯(独联体) (CIS)
星等 :
--
Orbit Information
数据来源 国际轨道数据 AOE轨道数据
星历时间 2026-07-28T08:19:45+0800
14小时前
查看轨道信息
2026-07-24T17:00:00+0800
4天前
查看轨道信息
半长轴 7347.5km 7347.514km
偏心率 0.0024437 0.0025216
轨道倾角 82.995° 82.992°
近地点辐角 293.665° 305.180°
升交点赤经 191.739° 194.431°
平近点角 66.194° 7.943°
近地点 951.407km 950.849km
远地点 987.319km 987.905km
周期 104.465分钟 104.465分钟
每日圈数 13.784575 13.784537
Detailed Information
使用方式:
暂无
2D Orbit Map
3D Orbit Map
Orbit Altitude Analysis Chart
Orbit Inclination Analysis Chart
Orbit Comprehensive Analysis Chart
View Comprehensive Chart